Home > Weather > Palermo > Past weeks

Flag for Italy Weather for the Past 2 Weeks in Palermo, Italy

Now
61 °F

Clear.


Feels Like: 61 °F
Forecast: 52 / 61 °F
Wind: 25 mph from South

Location: Palermo / Punta Raisi

Current Time: Feb 8, 2016 at 2:01:22 AM

Latest Report: Feb 8, 2016 at 12:20 AM


Visibility: 10 mi

Pressure: 30.04 "Hg

Humidity: 52%

Dew point: 43 °F

Location of PalermoLocation

Historic Weather in Palermo — Graph

°F

Palermo Temperature Yesterday

Maximum temperature yesterday: 64 °F (at 1:50 PM)
Minimum temperature yesterday: 57 °F (at 12:50 AM)
Average temperature yesterday: 60 °F

High & Low Weather Summary for the Past Weeks

 TemperatureHumidityPressure
High64 °F (Feb 3, 12:20 PM)100% (Feb 1, 11:20 PM)30.60 "Hg (Feb 1, 11:20 PM)
Low43 °F (Feb 6, 6:20 AM)39% (Jan 25, 1:20 PM)30.01 "Hg (Feb 7, 6:20 PM)
Average55 °F72%30.37 "Hg
* Reported Jan 23 11:20 PM — Feb 7 11:50 PM, Palermo, Weather by CustomWeather, © 2016

Note: Actual official high and low records may vary slightly from our data, if they occured in-between our weather recording intervals... More about our weather records

Advertising

Palermo Weather History for the Previous 24 Hours

 ConditionsComfort  
Time TempWeatherWind HumidityBarometerVisibility
11:50 PM
Sun, Feb 7
61 °FPassing clouds.20 mph55%30.04 "HgN/A
11:20 PM63 °FClear.16 mph52%30.12 "Hg10 mi
10:50 PM63 °FClear.16 mph49%30.04 "Hg10 mi
10:20 PM61 °FClear.24 mph52%30.04 "Hg10 mi
9:50 PM61 °FClear.30 mph52%30.04 "Hg10 mi
9:20 PM61 °FClear.24 mph52%30.04 "Hg10 mi
8:50 PM63 °FPassing clouds.15 mph45%30.04 "HgN/A
8:20 PM63 °FPassing clouds.7 mph42%30.01 "HgN/A
7:50 PM63 °FPassing clouds.10 mph42%30.01 "HgN/A
7:20 PM63 °FPassing clouds.13 mph42%30.01 "HgN/A
6:50 PM61 °FClear.22 mph48%30.01 "Hg10 mi
6:20 PM61 °FClear.25 mph48%30.01 "Hg10 mi
5:50 PM61 °FClear.25 mph48%30.04 "Hg10 mi
5:20 PM61 °FPassing clouds.23 mph48%30.04 "HgN/A
4:50 PM61 °FPassing clouds.17 mph52%30.04 "HgN/A
4:20 PM63 °FPassing clouds.22 mph49%30.04 "HgN/A
3:50 PM63 °FPassing clouds.23 mph45%30.04 "HgN/A
3:20 PM63 °FSunny.26 mph49%30.04 "Hg10 mi
2:50 PM63 °FPassing clouds.29 mph52%30.07 "HgN/A
2:20 PM63 °FPassing clouds.25 mph52%30.07 "HgN/A
1:50 PM64 °FPassing clouds.26 mph49%30.07 "HgN/A
1:20 PM63 °FPassing clouds.24 mph52%30.12 "HgN/A
12:50 PM63 °FPassing clouds.29 mph52%30.12 "HgN/A
12:20 PM63 °FPassing clouds.29 mph52%30.12 "HgN/A
11:50 AM63 °FPassing clouds.28 mph56%30.15 "HgN/A
10:50 AM61 °FPassing clouds.30 mph55%30.15 "HgN/A
9:50 AM59 °FPassing clouds.28 mph63%30.18 "HgN/A
8:50 AM59 °FPassing clouds.28 mph59%30.18 "HgN/A
7:50 AM59 °FPassing clouds.24 mph55%30.21 "HgN/A
7:20 AM59 °FPassing clouds.23 mph55%30.21 "HgN/A
6:50 AM59 °FPassing clouds.23 mph55%30.21 "HgN/A
6:20 AM59 °FPassing clouds.22 mph55%30.24 "HgN/A
5:50 AM57 °FClear.22 mph59%30.24 "Hg10 mi
5:20 AM57 °FClear.20 mph59%30.24 "Hg10 mi
4:50 AM57 °FClear.20 mph59%30.27 "Hg10 mi
4:20 AM57 °FClear.23 mph59%30.27 "Hg10 mi
3:50 AM57 °FClear.22 mph59%30.27 "Hg10 mi
3:20 AM57 °FClear.21 mph59%30.27 "Hg10 mi
2:50 AM57 °FClear.16 mph59%30.27 "Hg10 mi
2:20 AM57 °FPassing clouds.13 mph59%30.30 "HgN/A
Weather by CustomWeather, © 2016

See weather overviewHow to use our weather pages